owner,sensor,date,latitude,longitude,sea_surface_height_above_sea_level,qcFlag 
WAVCIS,ioos:station:WAVCIS:CSI16:1,2010-06-01T00:00:00Z,29.4012,-89.0355,9.219,11111222 
WAVCIS,ioos:station:WAVCIS:CSI16:1,2010-06-01T01:00:00Z,29.4012,-89.0355,9.181,11111222 
WAVCIS,ioos:station:WAVCIS:CSI16:1,2010-06-01T02:00:00Z,29.4012,-89.0355,9.157,11111222 
WAVCIS,ioos:station:WAVCIS:CSI16:1,2010-06-01T03:00:00Z,29.4012,-89.0355,9.173,11111222 
WAVCIS,ioos:station:WAVCIS:CSI16:1,2010-06-01T04:00:00Z,29.4012,-89.0355,9.164,11111222 
WAVCIS,ioos:station:WAVCIS:CSI16:1,2010-06-01T05:00:00Z,29.4012,-89.0355,9.183,11111222 
WAVCIS,ioos:station:WAVCIS:CSI16:1,2010-06-01T06:00:00Z,29.4012,-89.0355,9.214,11111222 
WAVCIS,ioos:station:WAVCIS:CSI16:1,2010-06-01T07:00:00Z,29.4012,-89.0355,9.241,11111222 
WAVCIS,ioos:station:WAVCIS:CSI16:1,2010-06-01T08:00:00Z,29.4012,-89.0355,9.29,11111222 
WAVCIS,ioos:station:WAVCIS:CSI16:1,2010-06-01T09:00:00Z,29.4012,-89.0355,9.328,11111222 
WAVCIS,ioos:station:WAVCIS:CSI16:1,2010-06-01T10:00:00Z,29.4012,-89.0355,9.384,11111222 
WAVCIS,ioos:station:WAVCIS:CSI16:1,2010-06-01T11:00:00Z,29.4012,-89.0355,9.428,11111222 
WAVCIS,ioos:station:WAVCIS:CSI16:1,2010-06-01T12:00:00Z,29.4012,-89.0355,9.492,11111222 
WAVCIS,ioos:station:WAVCIS:CSI16:1,2010-06-01T13:00:00Z,29.4012,-89.0355,9.551,11111222 
WAVCIS,ioos:station:WAVCIS:CSI16:1,2010-06-01T14:00:00Z,29.4012,-89.0355,9.571,11111222 
WAVCIS,ioos:station:WAVCIS:CSI16:1,2010-06-01T15:00:00Z,29.4012,-89.0355,9.614,11111222 
WAVCIS,ioos:station:WAVCIS:CSI16:1,2010-06-01T16:00:00Z,29.4012,-89.0355,9.626,11111222 
WAVCIS,ioos:station:WAVCIS:CSI16:1,2010-06-01T17:00:00Z,29.4012,-89.0355,9.626,11111222 
WAVCIS,ioos:station:WAVCIS:CSI16:1,2010-06-01T18:00:00Z,29.4012,-89.0355,9.603,11111222 
WAVCIS,ioos:station:WAVCIS:CSI16:1,2010-06-01T19:00:00Z,29.4012,-89.0355,9.577,11111222 
WAVCIS,ioos:station:WAVCIS:CSI16:1,2010-06-01T20:00:00Z,29.4012,-89.0355,9.531,11111222 
WAVCIS,ioos:station:WAVCIS:CSI16:1,2010-06-01T21:00:00Z,29.4012,-89.0355,9.48,11111222 
WAVCIS,ioos:station:WAVCIS:CSI16:1,2010-06-01T22:00:00Z,29.4012,-89.0355,9.403,11111222 
WAVCIS,ioos:station:WAVCIS:CSI16:1,2010-06-01T23:00:00Z,29.4012,-89.0355,9.35,11111222 
WAVCIS,ioos:station:WAVCIS:CSI16:1,2010-06-02T00:00:00Z,29.4012,-89.0355,9.316,11111222 
WAVCIS,ioos:station:WAVCIS:CSI16:1,2010-06-02T01:00:00Z,29.4012,-89.0355,9.256,11111222 
WAVCIS,ioos:station:WAVCIS:CSI16:1,2010-06-02T02:00:00Z,29.4012,-89.0355,9.221,11111222 
WAVCIS,ioos:station:WAVCIS:CSI16:1,2010-06-02T03:00:00Z,29.4012,-89.0355,9.206,11111222 
WAVCIS,ioos:station:WAVCIS:CSI16:1,2010-06-02T04:00:00Z,29.4012,-89.0355,9.203,11111222 
WAVCIS,ioos:station:WAVCIS:CSI16:1,2010-06-02T05:00:00Z,29.4012,-89.0355,9.212,11111222 
WAVCIS,ioos:station:WAVCIS:CSI16:1,2010-06-02T06:00:00Z,29.4012,-89.0355,9.215,11111222 
WAVCIS,ioos:station:WAVCIS:CSI16:1,2010-06-02T07:00:00Z,29.4012,-89.0355,9.239,11111222 
WAVCIS,ioos:station:WAVCIS:CSI16:1,2010-06-02T08:00:00Z,29.4012,-89.0355,9.268,11111222 
WAVCIS,ioos:station:WAVCIS:CSI16:1,2010-06-02T09:00:00Z,29.4012,-89.0355,9.306,11111222 
WAVCIS,ioos:station:WAVCIS:CSI16:1,2010-06-02T10:00:00Z,29.4012,-89.0355,9.351,11111222 
WAVCIS,ioos:station:WAVCIS:CSI16:1,2010-06-02T11:00:00Z,29.4012,-89.0355,9.394,11111222 
WAVCIS,ioos:station:WAVCIS:CSI16:1,2010-06-02T12:00:00Z,29.4012,-89.0355,9.431,11111222 
WAVCIS,ioos:station:WAVCIS:CSI16:1,2010-06-02T13:00:00Z,29.4012,-89.0355,9.474,11111222 
WAVCIS,ioos:station:WAVCIS:CSI16:1,2010-06-02T14:00:00Z,29.4012,-89.0355,9.505,11111222 
WAVCIS,ioos:station:WAVCIS:CSI16:1,2010-06-02T15:00:00Z,29.4012,-89.0355,9.534,11111222 
WAVCIS,ioos:station:WAVCIS:CSI16:1,2010-06-02T16:00:00Z,29.4012,-89.0355,9.549,11111222 
WAVCIS,ioos:station:WAVCIS:CSI16:1,2010-06-02T17:00:00Z,29.4012,-89.0355,9.562,11111222 
WAVCIS,ioos:station:WAVCIS:CSI16:1,2010-06-02T18:00:00Z,29.4012,-89.0355,9.541,11111222 
WAVCIS,ioos:station:WAVCIS:CSI16:1,2010-06-02T19:00:00Z,29.4012,-89.0355,9.525,11111222 
WAVCIS,ioos:station:WAVCIS:CSI16:1,2010-06-02T20:00:00Z,29.4012,-89.0355,9.457,11111222 
WAVCIS,ioos:station:WAVCIS:CSI16:1,2010-06-02T21:00:00Z,29.4012,-89.0355,9.435,11111222 
WAVCIS,ioos:station:WAVCIS:CSI16:1,2010-06-02T22:00:00Z,29.4012,-89.0355,9.391,11111222 
WAVCIS,ioos:station:WAVCIS:CSI16:1,2010-06-02T23:00:00Z,29.4012,-89.0355,9.357,11111222 
WAVCIS,ioos:station:WAVCIS:CSI16:1,2010-06-03T00:00:00Z,29.4012,-89.0355,9.296,11111222 
WAVCIS,ioos:station:WAVCIS:CSI16:1,2010-06-03T01:00:00Z,29.4012,-89.0355,9.263,11111222 
WAVCIS,ioos:station:WAVCIS:CSI16:1,2010-06-03T02:00:00Z,29.4012,-89.0355,9.274,11111222 
WAVCIS,ioos:station:WAVCIS:CSI16:1,2010-06-03T03:00:00Z,29.4012,-89.0355,9.276,11111222 
WAVCIS,ioos:station:WAVCIS:CSI16:1,2010-06-03T04:00:00Z,29.4012,-89.0355,9.259,11111222 
WAVCIS,ioos:station:WAVCIS:CSI16:1,2010-06-03T05:00:00Z,29.4012,-89.0355,9.258,11111222 
WAVCIS,ioos:station:WAVCIS:CSI16:1,2010-06-03T06:00:00Z,29.4012,-89.0355,9.27,11111222 
WAVCIS,ioos:station:WAVCIS:CSI16:1,2010-06-03T07:00:00Z,29.4012,-89.0355,9.278,11111222 
WAVCIS,ioos:station:WAVCIS:CSI16:1,2010-06-03T08:00:00Z,29.4012,-89.0355,9.309,11111222 
WAVCIS,ioos:station:WAVCIS:CSI16:1,2010-06-03T09:00:00Z,29.4012,-89.0355,9.344,11111222 
WAVCIS,ioos:station:WAVCIS:CSI16:1,2010-06-03T10:00:00Z,29.4012,-89.0355,9.375,11111222 
WAVCIS,ioos:station:WAVCIS:CSI16:1,2010-06-03T11:00:00Z,29.4012,-89.0355,9.404,11111222 
WAVCIS,ioos:station:WAVCIS:CSI16:1,2010-06-03T12:00:00Z,29.4012,-89.0355,9.437,11111222 
WAVCIS,ioos:station:WAVCIS:CSI16:1,2010-06-03T13:00:00Z,29.4012,-89.0355,9.47,11111222 
WAVCIS,ioos:station:WAVCIS:CSI16:1,2010-06-03T14:00:00Z,29.4012,-89.0355,9.501,11111222 
WAVCIS,ioos:station:WAVCIS:CSI16:1,2010-06-03T15:00:00Z,29.4012,-89.0355,9.513,11111222 
WAVCIS,ioos:station:WAVCIS:CSI16:1,2010-06-03T16:00:00Z,29.4012,-89.0355,9.518,11111222 
WAVCIS,ioos:station:WAVCIS:CSI16:1,2010-06-03T17:00:00Z,29.4012,-89.0355,9.53,11111222 
WAVCIS,ioos:station:WAVCIS:CSI16:1,2010-06-03T18:00:00Z,29.4012,-89.0355,9.51,11111222 
WAVCIS,ioos:station:WAVCIS:CSI16:1,2010-06-03T19:00:00Z,29.4012,-89.0355,9.489,11111222 
WAVCIS,ioos:station:WAVCIS:CSI16:1,2010-06-03T20:00:00Z,29.4012,-89.0355,9.484,11111222 
WAVCIS,ioos:station:WAVCIS:CSI16:1,2010-06-03T21:00:00Z,29.4012,-89.0355,9.452,11111222 
WAVCIS,ioos:station:WAVCIS:CSI16:1,2010-06-03T22:00:00Z,29.4012,-89.0355,9.417,11111222 
WAVCIS,ioos:station:WAVCIS:CSI16:1,2010-06-03T23:00:00Z,29.4012,-89.0355,9.392,11111222 
WAVCIS,ioos:station:WAVCIS:CSI16:1,2010-06-04T00:00:00Z,29.4012,-89.0355,9.37,11111222 
WAVCIS,ioos:station:WAVCIS:CSI16:1,2010-06-04T01:00:00Z,29.4012,-89.0355,9.337,11111222 
WAVCIS,ioos:station:WAVCIS:CSI16:1,2010-06-04T02:00:00Z,29.4012,-89.0355,9.331,11111222 
WAVCIS,ioos:station:WAVCIS:CSI16:1,2010-06-04T03:00:00Z,29.4012,-89.0355,9.311,11111222 
WAVCIS,ioos:station:WAVCIS:CSI16:1,2010-06-04T04:00:00Z,29.4012,-89.0355,9.303,11111222 
WAVCIS,ioos:station:WAVCIS:CSI16:1,2010-06-04T05:00:00Z,29.4012,-89.0355,9.325,11111222 
WAVCIS,ioos:station:WAVCIS:CSI16:1,2010-06-04T06:00:00Z,29.4012,-89.0355,9.325,11111222 
WAVCIS,ioos:station:WAVCIS:CSI16:1,2010-06-04T07:00:00Z,29.4012,-89.0355,9.358,11111222 
WAVCIS,ioos:station:WAVCIS:CSI16:1,2010-06-04T08:00:00Z,29.4012,-89.0355,9.38,11111222 
WAVCIS,ioos:station:WAVCIS:CSI16:1,2010-06-04T09:00:00Z,29.4012,-89.0355,9.397,11111222 
WAVCIS,ioos:station:WAVCIS:CSI16:1,2010-06-04T10:00:00Z,29.4012,-89.0355,9.415,11111222 
WAVCIS,ioos:station:WAVCIS:CSI16:1,2010-06-04T11:00:00Z,29.4012,-89.0355,9.419,11111222 
WAVCIS,ioos:station:WAVCIS:CSI16:1,2010-06-04T12:00:00Z,29.4012,-89.0355,9.462,11111222 
WAVCIS,ioos:station:WAVCIS:CSI16:1,2010-06-04T13:00:00Z,29.4012,-89.0355,9.475,11111222 
WAVCIS,ioos:station:WAVCIS:CSI16:1,2010-06-04T14:00:00Z,29.4012,-89.0355,9.478,11111222 
WAVCIS,ioos:station:WAVCIS:CSI16:1,2010-06-04T15:00:00Z,29.4012,-89.0355,9.486,11111222 
WAVCIS,ioos:station:WAVCIS:CSI16:1,2010-06-04T16:00:00Z,29.4012,-89.0355,9.49,11111222 
WAVCIS,ioos:station:WAVCIS:CSI16:1,2010-06-04T17:00:00Z,29.4012,-89.0355,9.493,11111222 
WAVCIS,ioos:station:WAVCIS:CSI16:1,2010-06-04T18:00:00Z,29.4012,-89.0355,9.465,11111222 
WAVCIS,ioos:station:WAVCIS:CSI16:1,2010-06-04T19:00:00Z,29.4012,-89.0355,9.457,11111222 
WAVCIS,ioos:station:WAVCIS:CSI16:1,2010-06-04T20:00:00Z,29.4012,-89.0355,9.407,11111222 
WAVCIS,ioos:station:WAVCIS:CSI16:1,2010-06-04T21:00:00Z,29.4012,-89.0355,9.435,11111222 
WAVCIS,ioos:station:WAVCIS:CSI16:1,2010-06-04T22:00:00Z,29.4012,-89.0355,9.389,11111222 
WAVCIS,ioos:station:WAVCIS:CSI16:1,2010-06-04T23:00:00Z,29.4012,-89.0355,9.406,11111222 
WAVCIS,ioos:station:WAVCIS:CSI16:1,2010-06-05T00:00:00Z,29.4012,-89.0355,9.376,11111222 
WAVCIS,ioos:station:WAVCIS:CSI16:1,2010-06-05T01:00:00Z,29.4012,-89.0355,9.369,11111222 
WAVCIS,ioos:station:WAVCIS:CSI16:1,2010-06-05T02:00:00Z,29.4012,-89.0355,9.368,11111222 
WAVCIS,ioos:station:WAVCIS:CSI16:1,2010-06-05T03:00:00Z,29.4012,-89.0355,9.378,11111222 
WAVCIS,ioos:station:WAVCIS:CSI16:1,2010-06-05T04:00:00Z,29.4012,-89.0355,9.378,11111222 
WAVCIS,ioos:station:WAVCIS:CSI16:1,2010-06-05T05:00:00Z,29.4012,-89.0355,9.408,11111222 
WAVCIS,ioos:station:WAVCIS:CSI16:1,2010-06-05T06:00:00Z,29.4012,-89.0355,9.412,11111222 
WAVCIS,ioos:station:WAVCIS:CSI16:1,2010-06-05T07:00:00Z,29.4012,-89.0355,9.448,11111222 
WAVCIS,ioos:station:WAVCIS:CSI16:1,2010-06-05T08:00:00Z,29.4012,-89.0355,9.472,11111222 
WAVCIS,ioos:station:WAVCIS:CSI16:1,2010-06-05T09:00:00Z,29.4012,-89.0355,9.475,11111222 
WAVCIS,ioos:station:WAVCIS:CSI16:1,2010-06-05T10:00:00Z,29.4012,-89.0355,9.499,11111222 
WAVCIS,ioos:station:WAVCIS:CSI16:1,2010-06-05T11:00:00Z,29.4012,-89.0355,9.525,11111222 
WAVCIS,ioos:station:WAVCIS:CSI16:1,2010-06-05T12:00:00Z,29.4012,-89.0355,9.528,11111222 
WAVCIS,ioos:station:WAVCIS:CSI16:1,2010-06-05T13:00:00Z,29.4012,-89.0355,9.54,11111222 
WAVCIS,ioos:station:WAVCIS:CSI16:1,2010-06-05T14:00:00Z,29.4012,-89.0355,9.544,11111222 
WAVCIS,ioos:station:WAVCIS:CSI16:1,2010-06-05T15:00:00Z,29.4012,-89.0355,9.521,11111222 
WAVCIS,ioos:station:WAVCIS:CSI16:1,2010-06-05T16:00:00Z,29.4012,-89.0355,9.501,11111222 
WAVCIS,ioos:station:WAVCIS:CSI16:1,2010-06-05T17:00:00Z,29.4012,-89.0355,9.507,11111222 
WAVCIS,ioos:station:WAVCIS:CSI16:1,2010-06-05T18:00:00Z,29.4012,-89.0355,9.486,11111222 
WAVCIS,ioos:station:WAVCIS:CSI16:1,2010-06-05T19:00:00Z,29.4012,-89.0355,9.452,11111222 
WAVCIS,ioos:station:WAVCIS:CSI16:1,2010-06-05T20:00:00Z,29.4012,-89.0355,9.437,11111222 
WAVCIS,ioos:station:WAVCIS:CSI16:1,2010-06-05T21:00:00Z,29.4012,-89.0355,9.409,11111222 
WAVCIS,ioos:station:WAVCIS:CSI16:1,2010-06-05T22:00:00Z,29.4012,-89.0355,9.386,11111222 
WAVCIS,ioos:station:WAVCIS:CSI16:1,2010-06-05T23:00:00Z,29.4012,-89.0355,9.385,11111222 
WAVCIS,ioos:station:WAVCIS:CSI16:1,2010-06-06T00:00:00Z,29.4012,-89.0355,9.38,11111222 
WAVCIS,ioos:station:WAVCIS:CSI16:1,2010-06-06T01:00:00Z,29.4012,-89.0355,9.384,11111222 
WAVCIS,ioos:station:WAVCIS:CSI16:1,2010-06-06T02:00:00Z,29.4012,-89.0355,9.375,11111222 
WAVCIS,ioos:station:WAVCIS:CSI16:1,2010-06-06T03:00:00Z,29.4012,-89.0355,9.371,11111222 
WAVCIS,ioos:station:WAVCIS:CSI16:1,2010-06-06T04:00:00Z,29.4012,-89.0355,9.403,11111222 
WAVCIS,ioos:station:WAVCIS:CSI16:1,2010-06-06T05:00:00Z,29.4012,-89.0355,9.406,11111222 
WAVCIS,ioos:station:WAVCIS:CSI16:1,2010-06-06T06:00:00Z,29.4012,-89.0355,9.426,11111222 
WAVCIS,ioos:station:WAVCIS:CSI16:1,2010-06-06T07:00:00Z,29.4012,-89.0355,9.457,11111222 
WAVCIS,ioos:station:WAVCIS:CSI16:1,2010-06-06T08:00:00Z,29.4012,-89.0355,9.451,11111222 
WAVCIS,ioos:station:WAVCIS:CSI16:1,2010-06-06T09:00:00Z,29.4012,-89.0355,9.482,11111222 
WAVCIS,ioos:station:WAVCIS:CSI16:1,2010-06-06T10:00:00Z,29.4012,-89.0355,9.502,11111222 
WAVCIS,ioos:station:WAVCIS:CSI16:1,2010-06-06T11:00:00Z,29.4012,-89.0355,9.514,11111222 
WAVCIS,ioos:station:WAVCIS:CSI16:1,2010-06-06T12:00:00Z,29.4012,-89.0355,9.517,11111222 
WAVCIS,ioos:station:WAVCIS:CSI16:1,2010-06-06T13:00:00Z,29.4012,-89.0355,9.53,11111222 
WAVCIS,ioos:station:WAVCIS:CSI16:1,2010-06-06T14:00:00Z,29.4012,-89.0355,9.519,11111222 
WAVCIS,ioos:station:WAVCIS:CSI16:1,2010-06-06T15:00:00Z,29.4012,-89.0355,9.492,11111222 
WAVCIS,ioos:station:WAVCIS:CSI16:1,2010-06-06T16:00:00Z,29.4012,-89.0355,9.473,11111222 
WAVCIS,ioos:station:WAVCIS:CSI16:1,2010-06-06T17:00:00Z,29.4012,-89.0355,9.448,11111222 
WAVCIS,ioos:station:WAVCIS:CSI16:1,2010-06-06T18:00:00Z,29.4012,-89.0355,9.416,11111222 
WAVCIS,ioos:station:WAVCIS:CSI16:1,2010-06-06T19:00:00Z,29.4012,-89.0355,9.387,11111222 
WAVCIS,ioos:station:WAVCIS:CSI16:1,2010-06-06T20:00:00Z,29.4012,-89.0355,9.366,11111222 
WAVCIS,ioos:station:WAVCIS:CSI16:1,2010-06-06T21:00:00Z,29.4012,-89.0355,9.371,11111222 
WAVCIS,ioos:station:WAVCIS:CSI16:1,2010-06-06T22:00:00Z,29.4012,-89.0355,9.351,11111222 
WAVCIS,ioos:station:WAVCIS:CSI16:1,2010-06-06T23:00:00Z,29.4012,-89.0355,9.347,11111222 
WAVCIS,ioos:station:WAVCIS:CSI16:1,2010-06-07T00:00:00Z,29.4012,-89.0355,9.34,11111222 
WAVCIS,ioos:station:WAVCIS:CSI16:1,2010-06-07T01:00:00Z,29.4012,-89.0355,9.312,11111222 
WAVCIS,ioos:station:WAVCIS:CSI16:1,2010-06-07T02:00:00Z,29.4012,-89.0355,9.369,11111222 
WAVCIS,ioos:station:WAVCIS:CSI16:1,2010-06-07T03:00:00Z,29.4012,-89.0355,9.42,11111222 
WAVCIS,ioos:station:WAVCIS:CSI16:1,2010-06-07T04:00:00Z,29.4012,-89.0355,9.416,11111222 
WAVCIS,ioos:station:WAVCIS:CSI16:1,2010-06-07T05:00:00Z,29.4012,-89.0355,9.428,11111222 
WAVCIS,ioos:station:WAVCIS:CSI16:1,2010-06-07T06:00:00Z,29.4012,-89.0355,9.452,11111222 
WAVCIS,ioos:station:WAVCIS:CSI16:1,2010-06-07T07:00:00Z,29.4012,-89.0355,9.467,11111222 
WAVCIS,ioos:station:WAVCIS:CSI16:1,2010-06-07T08:00:00Z,29.4012,-89.0355,9.498,11111222 
WAVCIS,ioos:station:WAVCIS:CSI16:1,2010-06-07T09:00:00Z,29.4012,-89.0355,9.504,11111222 
WAVCIS,ioos:station:WAVCIS:CSI16:1,2010-06-07T10:00:00Z,29.4012,-89.0355,9.521,11111222 
WAVCIS,ioos:station:WAVCIS:CSI16:1,2010-06-07T11:00:00Z,29.4012,-89.0355,9.542,11111222 
WAVCIS,ioos:station:WAVCIS:CSI16:1,2010-06-07T12:00:00Z,29.4012,-89.0355,9.549,11111222 
WAVCIS,ioos:station:WAVCIS:CSI16:1,2010-06-07T13:00:00Z,29.4012,-89.0355,9.542,11111222 
WAVCIS,ioos:station:WAVCIS:CSI16:1,2010-06-07T14:00:00Z,29.4012,-89.0355,9.528,11111222 
WAVCIS,ioos:station:WAVCIS:CSI16:1,2010-06-07T15:00:00Z,29.4012,-89.0355,9.49,11111222 
WAVCIS,ioos:station:WAVCIS:CSI16:1,2010-06-07T16:00:00Z,29.4012,-89.0355,9.436,11111222 
WAVCIS,ioos:station:WAVCIS:CSI16:1,2010-06-07T17:00:00Z,29.4012,-89.0355,9.394,11111222 
WAVCIS,ioos:station:WAVCIS:CSI16:1,2010-06-07T18:00:00Z,29.4012,-89.0355,9.352,11111222 
WAVCIS,ioos:station:WAVCIS:CSI16:1,2010-06-07T19:00:00Z,29.4012,-89.0355,9.298,11111222 
WAVCIS,ioos:station:WAVCIS:CSI16:1,2010-06-07T20:00:00Z,29.4012,-89.0355,9.278,11111222 
WAVCIS,ioos:station:WAVCIS:CSI16:1,2010-06-07T21:00:00Z,29.4012,-89.0355,9.254,11111222 
WAVCIS,ioos:station:WAVCIS:CSI16:1,2010-06-07T22:00:00Z,29.4012,-89.0355,9.24,11111222 
WAVCIS,ioos:station:WAVCIS:CSI16:1,2010-06-07T23:00:00Z,29.4012,-89.0355,9.243,11111222 
WAVCIS,ioos:station:WAVCIS:CSI16:1,2010-06-08T00:00:00Z,29.4012,-89.0355,9.263,11111222 
WAVCIS,ioos:station:WAVCIS:CSI16:1,2010-06-08T01:00:00Z,29.4012,-89.0355,9.298,11111222 
WAVCIS,ioos:station:WAVCIS:CSI16:1,2010-06-08T02:00:00Z,29.4012,-89.0355,9.335,11111222 
WAVCIS,ioos:station:WAVCIS:CSI16:1,2010-06-08T03:00:00Z,29.4012,-89.0355,9.375,11111222 
WAVCIS,ioos:station:WAVCIS:CSI16:1,2010-06-08T04:00:00Z,29.4012,-89.0355,9.413,11111222 
WAVCIS,ioos:station:WAVCIS:CSI16:1,2010-06-08T05:00:00Z,29.4012,-89.0355,9.454,11111222 
WAVCIS,ioos:station:WAVCIS:CSI16:1,2010-06-08T06:00:00Z,29.4012,-89.0355,9.501,11111222 
WAVCIS,ioos:station:WAVCIS:CSI16:1,2010-06-08T07:00:00Z,29.4012,-89.0355,9.523,11111222 
WAVCIS,ioos:station:WAVCIS:CSI16:1,2010-06-08T08:00:00Z,29.4012,-89.0355,9.581,11111222 
WAVCIS,ioos:station:WAVCIS:CSI16:1,2010-06-08T09:00:00Z,29.4012,-89.0355,9.601,11111222 
WAVCIS,ioos:station:WAVCIS:CSI16:1,2010-06-08T10:00:00Z,29.4012,-89.0355,9.627,11111222 
WAVCIS,ioos:station:WAVCIS:CSI16:1,2010-06-08T11:00:00Z,29.4012,-89.0355,9.652,11111222 
WAVCIS,ioos:station:WAVCIS:CSI16:1,2010-06-08T12:00:00Z,29.4012,-89.0355,9.649,11111222 
WAVCIS,ioos:station:WAVCIS:CSI16:1,2010-06-08T13:00:00Z,29.4012,-89.0355,9.641,11111222 
WAVCIS,ioos:station:WAVCIS:CSI16:1,2010-06-08T14:00:00Z,29.4012,-89.0355,9.603,11111222 
WAVCIS,ioos:station:WAVCIS:CSI16:1,2010-06-08T15:00:00Z,29.4012,-89.0355,9.546,11111222 
WAVCIS,ioos:station:WAVCIS:CSI16:1,2010-06-08T16:00:00Z,29.4012,-89.0355,9.476,11111222 
WAVCIS,ioos:station:WAVCIS:CSI16:1,2010-06-08T17:00:00Z,29.4012,-89.0355,9.406,11111222 
WAVCIS,ioos:station:WAVCIS:CSI16:1,2010-06-08T18:00:00Z,29.4012,-89.0355,9.327,11111222 
WAVCIS,ioos:station:WAVCIS:CSI16:1,2010-06-08T19:00:00Z,29.4012,-89.0355,9.269,11111222 
WAVCIS,ioos:station:WAVCIS:CSI16:1,2010-06-08T20:00:00Z,29.4012,-89.0355,9.239,11111222 
WAVCIS,ioos:station:WAVCIS:CSI16:1,2010-06-08T21:00:00Z,29.4012,-89.0355,9.2,11111222 
WAVCIS,ioos:station:WAVCIS:CSI16:1,2010-06-08T22:00:00Z,29.4012,-89.0355,9.179,11111222 
WAVCIS,ioos:station:WAVCIS:CSI16:1,2010-06-08T23:00:00Z,29.4012,-89.0355,9.176,11111222 
WAVCIS,ioos:station:WAVCIS:CSI16:1,2010-06-09T00:00:00Z,29.4012,-89.0355,9.201,11111222 
WAVCIS,ioos:station:WAVCIS:CSI16:1,2010-06-09T01:00:00Z,29.4012,-89.0355,9.24,11111222 
WAVCIS,ioos:station:WAVCIS:CSI16:1,2010-06-09T02:00:00Z,29.4012,-89.0355,9.278,11111222 
WAVCIS,ioos:station:WAVCIS:CSI16:1,2010-06-09T03:00:00Z,29.4012,-89.0355,9.326,11111222 
WAVCIS,ioos:station:WAVCIS:CSI16:1,2010-06-09T04:00:00Z,29.4012,-89.0355,9.373,11111222 
WAVCIS,ioos:station:WAVCIS:CSI16:1,2010-06-09T05:00:00Z,29.4012,-89.0355,9.42,11111222 
WAVCIS,ioos:station:WAVCIS:CSI16:1,2010-06-09T06:00:00Z,29.4012,-89.0355,9.486,11111222 
WAVCIS,ioos:station:WAVCIS:CSI16:1,2010-06-09T07:00:00Z,29.4012,-89.0355,9.531,11111222 
WAVCIS,ioos:station:WAVCIS:CSI16:1,2010-06-09T08:00:00Z,29.4012,-89.0355,9.584,11111222 
WAVCIS,ioos:station:WAVCIS:CSI16:1,2010-06-09T09:00:00Z,29.4012,-89.0355,9.635,11111222 
WAVCIS,ioos:station:WAVCIS:CSI16:1,2010-06-09T10:00:00Z,29.4012,-89.0355,9.654,11111222 
WAVCIS,ioos:station:WAVCIS:CSI16:1,2010-06-09T11:00:00Z,29.4012,-89.0355,9.676,11111222 
WAVCIS,ioos:station:WAVCIS:CSI16:1,2010-06-09T12:00:00Z,29.4012,-89.0355,9.678,11111222 
WAVCIS,ioos:station:WAVCIS:CSI16:1,2010-06-09T13:00:00Z,29.4012,-89.0355,9.682,11111222 
WAVCIS,ioos:station:WAVCIS:CSI16:1,2010-06-09T14:00:00Z,29.4012,-89.0355,9.657,11111222 
WAVCIS,ioos:station:WAVCIS:CSI16:1,2010-06-09T15:00:00Z,29.4012,-89.0355,9.612,11111222 
WAVCIS,ioos:station:WAVCIS:CSI16:1,2010-06-09T16:00:00Z,29.4012,-89.0355,9.552,11111222 
WAVCIS,ioos:station:WAVCIS:CSI16:1,2010-06-09T17:00:00Z,29.4012,-89.0355,9.478,11111222 
WAVCIS,ioos:station:WAVCIS:CSI16:1,2010-06-09T18:00:00Z,29.4012,-89.0355,9.38,11111222 
WAVCIS,ioos:station:WAVCIS:CSI16:1,2010-06-09T19:00:00Z,29.4012,-89.0355,9.304,11111222 
WAVCIS,ioos:station:WAVCIS:CSI16:1,2010-06-09T20:00:00Z,29.4012,-89.0355,9.246,11111222 
WAVCIS,ioos:station:WAVCIS:CSI16:1,2010-06-09T21:00:00Z,29.4012,-89.0355,9.206,11111222 
WAVCIS,ioos:station:WAVCIS:CSI16:1,2010-06-09T22:00:00Z,29.4012,-89.0355,9.183,11111222 
WAVCIS,ioos:station:WAVCIS:CSI16:1,2010-06-09T23:00:00Z,29.4012,-89.0355,9.169,11111222 
WAVCIS,ioos:station:WAVCIS:CSI16:1,2010-06-10T00:00:00Z,29.4012,-89.0355,9.178,11111222 
WAVCIS,ioos:station:WAVCIS:CSI16:1,2010-06-10T01:00:00Z,29.4012,-89.0355,9.204,11111222 
WAVCIS,ioos:station:WAVCIS:CSI16:1,2010-06-10T02:00:00Z,29.4012,-89.0355,9.251,11111222 
WAVCIS,ioos:station:WAVCIS:CSI16:1,2010-06-10T03:00:00Z,29.4012,-89.0355,9.31,11111222 
WAVCIS,ioos:station:WAVCIS:CSI16:1,2010-06-10T04:00:00Z,29.4012,-89.0355,9.352,11111222 
WAVCIS,ioos:station:WAVCIS:CSI16:1,2010-06-10T05:00:00Z,29.4012,-89.0355,9.403,11111222 
WAVCIS,ioos:station:WAVCIS:CSI16:1,2010-06-10T06:00:00Z,29.4012,-89.0355,9.464,11111222 
WAVCIS,ioos:station:WAVCIS:CSI16:1,2010-06-10T07:00:00Z,29.4012,-89.0355,9.533,11111222 
WAVCIS,ioos:station:WAVCIS:CSI16:1,2010-06-10T08:00:00Z,29.4012,-89.0355,9.598,11111222 
WAVCIS,ioos:station:WAVCIS:CSI16:1,2010-06-10T09:00:00Z,29.4012,-89.0355,9.646,11111222 
WAVCIS,ioos:station:WAVCIS:CSI16:1,2010-06-10T10:00:00Z,29.4012,-89.0355,9.684,11111222 
WAVCIS,ioos:station:WAVCIS:CSI16:1,2010-06-10T11:00:00Z,29.4012,-89.0355,9.718,11111222 
WAVCIS,ioos:station:WAVCIS:CSI16:1,2010-06-10T12:00:00Z,29.4012,-89.0355,9.734,11111222 
WAVCIS,ioos:station:WAVCIS:CSI16:1,2010-06-10T13:00:00Z,29.4012,-89.0355,9.733,11111222 
WAVCIS,ioos:station:WAVCIS:CSI16:1,2010-06-10T14:00:00Z,29.4012,-89.0355,9.708,11111222 
WAVCIS,ioos:station:WAVCIS:CSI16:1,2010-06-10T15:00:00Z,29.4012,-89.0355,9.661,11111222 
WAVCIS,ioos:station:WAVCIS:CSI16:1,2010-06-10T16:00:00Z,29.4012,-89.0355,9.591,11111222 
WAVCIS,ioos:station:WAVCIS:CSI16:1,2010-06-10T17:00:00Z,29.4012,-89.0355,9.51,11111222 
WAVCIS,ioos:station:WAVCIS:CSI16:1,2010-06-10T18:00:00Z,29.4012,-89.0355,9.408,11111222 
WAVCIS,ioos:station:WAVCIS:CSI16:1,2010-06-10T19:00:00Z,29.4012,-89.0355,9.317,11111222 
WAVCIS,ioos:station:WAVCIS:CSI16:1,2010-06-10T20:00:00Z,29.4012,-89.0355,9.231,11111222 
WAVCIS,ioos:station:WAVCIS:CSI16:1,2010-06-10T21:00:00Z,29.4012,-89.0355,9.171,11111222 
WAVCIS,ioos:station:WAVCIS:CSI16:1,2010-06-10T22:00:00Z,29.4012,-89.0355,9.142,11111222 
WAVCIS,ioos:station:WAVCIS:CSI16:1,2010-06-10T23:00:00Z,29.4012,-89.0355,9.122,11111222 
WAVCIS,ioos:station:WAVCIS:CSI16:1,2010-06-11T00:00:00Z,29.4012,-89.0355,9.138,11111222 
WAVCIS,ioos:station:WAVCIS:CSI16:1,2010-06-11T01:00:00Z,29.4012,-89.0355,9.167,11111222 
WAVCIS,ioos:station:WAVCIS:CSI16:1,2010-06-11T02:00:00Z,29.4012,-89.0355,9.214,11111222 
WAVCIS,ioos:station:WAVCIS:CSI16:1,2010-06-11T03:00:00Z,29.4012,-89.0355,9.274,11111222 
WAVCIS,ioos:station:WAVCIS:CSI16:1,2010-06-11T04:00:00Z,29.4012,-89.0355,9.34,11111222 
WAVCIS,ioos:station:WAVCIS:CSI16:1,2010-06-11T05:00:00Z,29.4012,-89.0355,9.407,11111222 
WAVCIS,ioos:station:WAVCIS:CSI16:1,2010-06-11T06:00:00Z,29.4012,-89.0355,9.476,11111222 
WAVCIS,ioos:station:WAVCIS:CSI16:1,2010-06-11T07:00:00Z,29.4012,-89.0355,9.541,11111222 
WAVCIS,ioos:station:WAVCIS:CSI16:1,2010-06-11T08:00:00Z,29.4012,-89.0355,9.603,11111222 
WAVCIS,ioos:station:WAVCIS:CSI16:1,2010-06-11T09:00:00Z,29.4012,-89.0355,9.665,11111222 
WAVCIS,ioos:station:WAVCIS:CSI16:1,2010-06-11T10:00:00Z,29.4012,-89.0355,9.732,11111222 
WAVCIS,ioos:station:WAVCIS:CSI16:1,2010-06-11T11:00:00Z,29.4012,-89.0355,9.79,11111222 
WAVCIS,ioos:station:WAVCIS:CSI16:1,2010-06-11T12:00:00Z,29.4012,-89.0355,9.82,11111222 
WAVCIS,ioos:station:WAVCIS:CSI16:1,2010-06-11T13:00:00Z,29.4012,-89.0355,9.833,11111222 
WAVCIS,ioos:station:WAVCIS:CSI16:1,2010-06-11T14:00:00Z,29.4012,-89.0355,9.818,11111222 
WAVCIS,ioos:station:WAVCIS:CSI16:1,2010-06-11T15:00:00Z,29.4012,-89.0355,9.782,11111222 
WAVCIS,ioos:station:WAVCIS:CSI16:1,2010-06-11T16:00:00Z,29.4012,-89.0355,9.734,11111222 
WAVCIS,ioos:station:WAVCIS:CSI16:1,2010-06-11T17:00:00Z,29.4012,-89.0355,9.653,11111222 
WAVCIS,ioos:station:WAVCIS:CSI16:1,2010-06-11T18:00:00Z,29.4012,-89.0355,9.534,11111222 
WAVCIS,ioos:station:WAVCIS:CSI16:1,2010-06-11T19:00:00Z,29.4012,-89.0355,9.414,11111222 
WAVCIS,ioos:station:WAVCIS:CSI16:1,2010-06-11T20:00:00Z,29.4012,-89.0355,9.306,11111222 
WAVCIS,ioos:station:WAVCIS:CSI16:1,2010-06-11T21:00:00Z,29.4012,-89.0355,9.218,11111222 
WAVCIS,ioos:station:WAVCIS:CSI16:1,2010-06-11T22:00:00Z,29.4012,-89.0355,9.155,11111222 
WAVCIS,ioos:station:WAVCIS:CSI16:1,2010-06-11T23:00:00Z,29.4012,-89.0355,9.108,11111222 
WAVCIS,ioos:station:WAVCIS:CSI16:1,2010-06-12T00:00:00Z,29.4012,-89.0355,9.105,11111222 
WAVCIS,ioos:station:WAVCIS:CSI16:1,2010-06-12T01:00:00Z,29.4012,-89.0355,9.106,11111222 
WAVCIS,ioos:station:WAVCIS:CSI16:1,2010-06-12T02:00:00Z,29.4012,-89.0355,9.13,11111222 
WAVCIS,ioos:station:WAVCIS:CSI16:1,2010-06-12T03:00:00Z,29.4012,-89.0355,9.205,11111222 
WAVCIS,ioos:station:WAVCIS:CSI16:1,2010-06-12T04:00:00Z,29.4012,-89.0355,9.268,11111222 